Location: Auckland
(36.8670°S, 174.7670°E)
Time: 06:35:04
(UTC+12:00)

A-11 Canister half - Visible Passes

Search period start: 21 August 2019 00:00
Search period end: 31 August 2019 00:00
Orbit: 1526 x 1683 km, 47.3° (Epoch: 19 August)

Date Brightness Start Highest point End Pass type
(mag) Time Alt. Az. Time Alt. Az. Time Alt. Az.
21 Aug 10.2 02:40:52 31° SE 02:40:52 31° SE 02:45:37 10° ESE visible
21 Aug 9.5 04:39:09 32° SW 04:43:15 48° SSE 04:52:16 10° E visible
22 Aug 10.5 02:20:19 25° SE 02:20:19 25° SE 02:23:57 10° ESE visible
22 Aug 9.5 04:18:37 38° SSW 04:21:33 47° S 04:30:33 10° E visible
22 Aug 9.1 06:18:00 10° WSW 06:27:26 87° SSE 06:36:58 10° NE visible
23 Aug 10.7 01:59:48 20° SE 01:59:48 20° SE 02:02:18 10° ESE visible
23 Aug 9.5 03:58:05 43° SSW 03:59:52 47° S 04:08:49 10° E visible
23 Aug 9.1 05:56:23 10° WSW 06:05:48 84° SSE 06:15:19 10° ENE visible
24 Aug 11.0 01:39:18 15° SE 01:39:18 15° SE 01:40:39 10° ESE visible
24 Aug 9.5 03:37:36 46° S 03:38:10 46° S 03:47:06 10° E visible
24 Aug 9.0 05:35:53 15° SW 05:44:10 81° SSE 05:53:40 10° ENE visible
25 Aug 11.2 01:18:50 11° ESE 01:18:50 11° ESE 01:18:59 10° ESE visible
25 Aug 9.6 03:17:08 45° SSE 03:17:08 45° SSE 03:25:23 10° E visible
25 Aug 9.0 05:15:25 20° SW 05:22:32 79° SSE 05:32:00 10° ENE visible
26 Aug 9.8 02:56:42 41° SE 02:56:42 41° SE 03:03:40 10° ESE visible
26 Aug 9.0 04:55:00 26° SW 05:00:55 76° SSE 05:10:21 10° ENE visible
27 Aug 10.1 02:36:18 35° SE 02:36:18 35° SE 02:41:57 10° ESE visible
27 Aug 9.0 04:34:37 34° SW 04:39:16 74° SSE 04:48:41 10° ENE visible
27 Aug 10.6 19:50:45 10° NNE 19:52:01 12° NNE 19:52:01 12° NNE visible
27 Aug 11.0 21:50:06 10° NW 21:50:23 11° NW 21:50:23 11° NW visible
28 Aug 10.4 02:15:59 28° ESE 02:15:59 28° ESE 02:20:15 10° ESE visible
28 Aug 9.0 04:14:17 45° SW 04:17:37 71° SSE 04:27:00 10° ENE visible
28 Aug 9.4 06:13:40 10° WSW 06:22:17 43° NW 06:31:00 10° NNE visible
28 Aug 10.5 19:29:44 10° NNE 19:32:26 14° NE 19:32:26 14° NE visible
28 Aug 10.6 21:28:32 10° NW 21:30:49 19° NNW 21:30:49 19° NNW visible
29 Aug 10.7 01:55:43 21° ESE 01:55:43 21° ESE 01:58:32 10° ESE visible
29 Aug 9.0 03:54:02 57° SSW 03:55:59 69° SSE 04:05:20 10° ENE visible
29 Aug 9.3 05:52:21 11° WSW 06:00:43 46° NW 06:09:30 10° NNE visible
29 Aug 10.4 19:08:48 10° NNE 19:12:47 13° ENE 19:12:54 13° ENE visible
29 Aug 10.1 21:06:57 10° NNW 21:11:16 29° NNW 21:11:16 29° NNW visible
30 Aug 11.0 01:35:31 15° ESE 01:35:31 15° ESE 01:36:50 10° ESE visible
30 Aug 9.0 03:33:51 66° S 03:34:20 67° SSE 03:43:39 10° ENE visible
30 Aug 9.2 05:32:10 17° WSW 05:39:08 48° NW 05:48:01 10° NNE visible
30 Aug 10.4 18:48:03 10° NE 18:51:14 12° ENE 18:53:23 11° ENE visible
30 Aug 9.6 20:45:24 10° NNW 20:51:46 41° N 20:51:46 41° N visible
